Regional Weather Roundup
Issued by NWS

Home | Current Version | Previous Version | Graphics & Text | Print | Product List | Glossary On
Versions: 1 2 3 4 5 6 7 8 9 10 11 12 13 14 15 16 17 18 19 20 21 22 23 24 25 26 27 28 29 30 31 32 33 34 35 36 37 38 39 40 41 42 43 44 45 46 47 48 49 50
000
ASUS43 KDTX 261001
RWRMI
MICHIGAN HOURLY REGIONAL WEATHER ROUNDUP
NATIONAL WEATHER SERVICE DETROIT/PONTIAC MI
600 AM EDT TUE JUL 26 2016

NOTE: "FAIR" INDICATES FEW OR NO CLOUDS BELOW 12,000 FEET WITH NO
SIGNIFICANT WEATHER AND/OR OBSTRUCTION TO VISIBILITY.

MIZ047>049-052>055-059>063-066>070-074>076-081>083-261100-
SOUTHEAST LOWER MICHIGAN

CITY           SKY/WX    TMP DP  RH WIND       PRES   REMARKS
ADRIAN         CLEAR     63  62  97 CALM      30.05R
ALMA           CLEAR     59  59 100 CALM      30.06R
ANN ARBOR      CLEAR     67  62  84 NW6       30.04R
BAD AXE        CLEAR     54  53  95 CALM      30.03S
CARO           CLEAR     58  57  98 CALM      30.03S FOG
DETROIT CITY   CLEAR     68  63  84 CALM      30.03R
DETROIT        PTCLDY    67  60  78 N3        30.04R
FLINT          CLEAR     62  58  86 CALM      30.05R
GROSSE ILE     CLEAR     65  61  86 CALM      30.03R
HILLSDALE      CLEAR     59  58  97 CALM      30.06R
HOWELL         CLEAR     61  60  96 CALM      30.05R

CITY           SKY/WX    TMP DP  RH WIND       PRES   REMARKS
JACKSON        CLEAR     63  63 100 CALM      30.06R
LAMBERTVILLE   CLEAR     65  62  92 CALM      30.04R
LANSING        CLEAR     63  60  90 CALM      30.06R
LAPEER         FAIR      56  55  96 CALM      30.05R
MASON          CLEAR     62  60  95 CALM      30.06R FOG
MONROE         CLEAR     64  62  94 N7        30.03R
MT. CLEMENS    CLEAR     63  61  95 NW2       30.02R
PONTIAC        PTCLDY    64  60  87 CALM      30.05R
PORT HURON     FOG       57  57 100 CALM      30.03R VSB 1/4
TRI CITIES     CLEAR     62  62 100 W5        30.04R
MIDLAND        FAIR      59  59 100 CALM      30.04R
TROY           CLEAR     67  62  81 CALM      30.06R
SAGINAW HB     CLEAR     63  59  88 CALM      30.03R
$$
MIZ043>046-050>051-056>058-064>065-071>073-077>080-261100-
SOUTHWEST LOWER MICHIGAN

CITY           SKY/WX    TMP DP  RH WIND       PRES   REMARKS
BATTLE CREEK   CLEAR     61  61 100 CALM      30.07R
BENTON HARBOR  CLEAR     62  60  93 CALM      30.05R
BIG RAPIDS     CLEAR     60  60 100 CALM      30.05R
COLDWATER      PTCLDY    61  61 100 CALM      30.06R FOG
FREMONT        FOG       61  61 100 CALM      30.04R VSB 1/4
HOLLAND        CLEAR     64  62  93 CALM      30.06R
GRAND RAPIDS   PTCLDY    64  61  90 CALM      30.06R
IONIA          FAIR      63  60  92 CALM      30.05R
KALAMAZOO      CLEAR     63  60  90 CALM      30.07R
LUDINGTON      FOG       61  61 100 CALM      30.03R VSB 1/2
MARSHALL       FOG       61  60  98 CALM      30.06R VSB 3/4
MOUNT PLEASANT CLEAR     62  61  98 CALM      30.04R
MUSKEGON       PTCLDY    65  63  93 CALM      30.05R
SOUTH HAVEN    CLEAR     61  61 100 CALM      30.05R
$$
MIZ016>042-261100-
NORTHERN LOWER MICHIGAN

CITY           SKY/WX    TMP DP  RH WIND       PRES   REMARKS
ALPENA         CLEAR     61  56  83 CALM      30.01R
BEAVER ISLAND  CLEAR     63  60  90 CALM      30.00S
BELLAIRE       CLEAR     56  55  96 CALM      30.02R FOG
CADILLAC       CLEAR     55  53  94 CALM      30.04S
CHARLEVOIX     CLEAR     64  62  91 CALM      30.04R
FRANKFORT      CLEAR     60  58  92 CALM      30.02S FOG
GAYLORD        CLEAR     59  54  83 CALM      30.04R
GRAYLING       FOG       52  50  94 CALM      30.04S VSB 3/4
HARBOR SPRINGS CLEAR     59  58  97 CALM      30.01R
HOUGHTON LAKE  CLEAR     54  53  97 CALM      30.05R
MANISTEE       FOG       58  57  97 CALM      30.02S VSB 1/4
OSCODA         CLEAR     60  55  83 CALM      30.01R
ROGERS CITY    CLEAR     62  55  78 SW7       30.01R
TRAVERSE CITY  CLEAR     61  58  90 CALM      30.01R
$$
MIZ007>008-015-261100-
EASTERN UPPER MICHIGAN

CITY           SKY/WX    TMP DP  RH WIND       PRES   REMARKS
KINROSS        CLEAR     59  57  93 W3        30.00R
MACKINAC ISLAN CLEAR     66  60  81 SW8       30.00R
S. S. MARIE    CLEAR     58  55  90 CALM      29.98R
$$
MIZ004>006-011>014-085-261100-
CENTRAL UPPER MICHIGAN

CITY           SKY/WX    TMP DP  RH WIND       PRES   REMARKS
ESCANABA       CLEAR     61  57  88 W3        29.99S
MENOMINEE      PTCLDY   N/A N/A N/A NW3       30.03
SAWYER-GWINN   CLEAR     59  56  88 CALM      30.01F
$$
MIZ001>003-009>011-084-261100-
WESTERN UPPER MICHIGAN

CITY           SKY/WX    TMP DP  RH WIND       PRES   REMARKS
IRON MOUNTAIN  CLEAR     59  55  87 CALM      30.01F
HOUGHTON       CLEAR     67  60  78 W10       29.96F
COPPER HARBOR    N/A     71  59  65 NW7       29.94S
IRONWOOD       CLEAR     61  59  94 CALM      30.00S
$$

ABBREVIATIONS USED IN REMARKS
   TC - TEMPERATURE IN CELSIUS
  WCI - WIND CHILL INDEX
   HX - HEAT INDEX
  VSB - VISIBILITY




USA.gov is the U.S. government's official web portal to all federal, state and local government web resources and services.